This is the latest recevied weather packets stored in our database for station/object AI5YA-13. If no packets are shown the sender has not sent any weather packets the latest 10 day(s).
| Time | Temp. | Humidity | Pressure | Rain* | Wind** | Luminosity | Snow |
|---|---|---|---|---|---|---|---|
| 1777592784 | 18.33° C | 57% | 1013.6 hPa | 0 mm | - | 69 W/m² | - |
| 1777592480 | 19.44° C | 52% | 1013.4 hPa | 0 mm | - | 71 W/m² | - |
| 1777592176 | 19.44° C | 48% | 1013.2 hPa | 0 mm | - | 65 W/m² | - |
| 1777591872 | 20° C | 47% | 1013.2 hPa | 0 mm | - | 61 W/m² | - |
| 1777591569 | 20° C | 47% | 1012.9 hPa | 0 mm | - | 76 W/m² | - |
| 1777591265 | 20° C | 47% | 1012.6 hPa | 0 mm | - | 95 W/m² | - |
| 1777590960 | 20° C | 48% | 1012.6 hPa | 0 mm | - | 98 W/m² | - |
| 1777590656 | 20° C | 47% | 1012.8 hPa | 0 mm | - | 96 W/m² | - |
| 1777590352 | 20° C | 46% | 1012.9 hPa | 0 mm | - | 81 W/m² | - |
| 1777590050 | 20° C | 45% | 1013.1 hPa | 0 mm | - | 81 W/m² | - |
| 1777589746 | 20° C | 45% | 1013.3 hPa | 0 mm | - | 81 W/m² | - |
| 1777589445 | 20° C | 45% | 1012.9 hPa | 0 mm | - | 114 W/m² | - |
| 1777589141 | 20° C | 45% | 1013 hPa | 0 mm | - | 90 W/m² | - |
| 1777588837 | 20° C | 45% | 1012.8 hPa | 0 mm | - | 129 W/m² | - |
| 1777588533 | 20.56° C | 44% | 1012.9 hPa | 0 mm | - | 128 W/m² | - |
| 1777588228 | 20.56° C | 45% | 1012.8 hPa | 0 mm | - | 174 W/m² | - |
| 1777587923 | 20° C | 46% | 1013.1 hPa | 0 mm | - | 204 W/m² | - |
| 1777587620 | 20° C | 46% | 1013.1 hPa | 0 mm | - | 153 W/m² | - |
| 1777587315 | 20° C | 46% | 1013.4 hPa | 0 mm | - | 173 W/m² | - |
| 1777587010 | 19.44° C | 46% | 1013.5 hPa | 0 mm | - | 161 W/m² | - |
| 1777586706 | 19.44° C | 47% | 1013.4 hPa | 0 mm | - | 125 W/m² | - |
| 1777586402 | 19.44° C | 48% | 1013.4 hPa | 0 mm | - | 159 W/m² | - |
| 1777586101 | 19.44° C | 48% | 1013.5 hPa | 0 mm | - | 115 W/m² | - |
| 1777585800 | 19.44° C | 48% | 1013.6 hPa | 0 mm | - | 108 W/m² | - |
| 1777585500 | 20° C | 48% | 1013.7 hPa | 0 mm | - | 151 W/m² | - |
* Rain latest hour (hover to see other rain measurements)
** Current wind speed in m/s (hover to see current wind gust speed)